DLH4M EDDH-EDDM

Flight info

Callsign DLH4M
Flight time 1h 0m
Altitude 35000
Route AMLUH2G/33 AMLUH M852 DENIX DCT ZUCKA DCT SODRO/N0421F310 T703 LULAR/N0410F300 T105 LANDU LANDU2A
Aircraft A320/M-SDE3FGHIRWY/LB1

Departure

Time 2026-04-30 18:11
Airport Hamburg Helmut Schmidt Airport (EDDH)

Arrival

Time 2026-04-30 19:11
Airport Munich Airport (EDDM)
Time Latitude Longitude Altitude Speed Heading
2026-04-30 17:39 53.63245 10.00359 48 ft 0 kts 86°
2026-04-30 18:00 53.63244 10.00327 48 ft 4 kts 86°
2026-04-30 18:01 53.63241 10.00245 43 ft 4 kts 88°
2026-04-30 18:02 53.63264 10.00173 45 ft 0 kts 175°
2026-04-30 18:05 53.62983 10.00091 48 ft 10 kts 213°
2026-04-30 18:06 53.62911 9.99966 48 ft 8 kts 246°
2026-04-30 18:07 53.62888 9.99728 45 ft 0 kts 332°
2026-04-30 18:10 53.64511 9.98323 110 ft 168 kts 335°
2026-04-30 18:11 53.68994 9.94727 2217 ft 207 kts 353°
2026-04-30 18:11 53.73274 9.96192 4393 ft 218 kts 53°
2026-04-30 18:12 53.74033 10.03449 7044 ft 217 kts 102°
2026-04-30 18:13 53.72579 10.08544 7955 ft 264 kts 117°
2026-04-30 18:13 53.70084 10.15931 10312 ft 275 kts 117°
2026-04-30 18:14 53.67342 10.20741 11427 ft 311 kts 147°
2026-04-30 18:15 53.60699 10.24094 13319 ft 344 kts 161°
2026-04-30 18:15 53.53649 10.27337 15425 ft 356 kts 161°
2026-04-30 18:16 53.48807 10.29561 16742 ft 364 kts 161°
2026-04-30 18:16 53.43857 10.31821 18015 ft 373 kts 161°
2026-04-30 18:17 53.41364 10.32957 18653 ft 377 kts 161°
2026-04-30 18:17 53.38812 10.34109 19184 ft 382 kts 161°
2026-04-30 18:17 53.33611 10.36436 20239 ft 391 kts 161°
2026-04-30 18:18 53.30970 10.37613 20773 ft 395 kts 161°
2026-04-30 18:18 53.28301 10.38805 21310 ft 398 kts 161°
2026-04-30 18:18 53.25612 10.40007 21837 ft 402 kts 161°
2026-04-30 18:18 53.22899 10.41221 22345 ft 406 kts 161°
2026-04-30 18:19 53.20160 10.42447 22858 ft 409 kts 161°
2026-04-30 18:19 53.17392 10.43685 23361 ft 413 kts 161°
2026-04-30 18:19 53.14592 10.44933 23846 ft 417 kts 161°
2026-04-30 18:19 53.11799 10.46131 24269 ft 421 kts 163°
2026-04-30 18:20 53.08923 10.47172 24698 ft 425 kts 166°
2026-04-30 18:20 53.06008 10.48077 25118 ft 428 kts 167°
2026-04-30 18:20 53.03065 10.48919 25534 ft 430 kts 167°
2026-04-30 18:20 53.00103 10.49748 25956 ft 433 kts 167°
2026-04-30 18:21 52.97120 10.50604 26350 ft 435 kts 167°
2026-04-30 18:21 52.94125 10.51498 26753 ft 437 kts 167°
2026-04-30 18:21 52.91127 10.52421 27148 ft 440 kts 167°
2026-04-30 18:21 52.88111 10.53363 27545 ft 442 kts 167°
2026-04-30 18:22 52.85077 10.54312 27924 ft 445 kts 167°
2026-04-30 18:22 52.78995 10.56199 28684 ft 450 kts 167°
2026-04-30 18:22 52.75910 10.57154 29062 ft 452 kts 167°
2026-04-30 18:23 52.72808 10.58114 29438 ft 455 kts 167°
2026-04-30 18:23 52.69684 10.59073 29820 ft 457 kts 167°
2026-04-30 18:23 52.66545 10.60029 30144 ft 460 kts 167°
2026-04-30 18:23 52.63387 10.60988 30469 ft 463 kts 167°
2026-04-30 18:24 52.57013 10.62925 31016 ft 467 kts 167°
2026-04-30 18:24 52.53854 10.63883 31307 ft 469 kts 167°
2026-04-30 18:24 52.50600 10.64871 31599 ft 471 kts 167°
2026-04-30 18:25 52.47372 10.65853 31890 ft 472 kts 167°
2026-04-30 18:25 52.40958 10.67798 32656 ft 470 kts 167°
2026-04-30 18:25 52.37743 10.68772 33051 ft 469 kts 167°
2026-04-30 18:26 52.31335 10.70705 33837 ft 466 kts 167°
2026-04-30 18:26 52.28146 10.71662 34236 ft 465 kts 167°
2026-04-30 18:26 52.24959 10.72619 34614 ft 464 kts 167°
2026-04-30 18:27 52.18617 10.74513 35267 ft 462 kts 167°
2026-04-30 18:27 52.15448 10.75453 35413 ft 462 kts 167°
2026-04-30 18:28 52.09223 10.77300 35439 ft 455 kts 167°
2026-04-30 18:28 51.99885 10.80076 35439 ft 454 kts 167°
2026-04-30 18:29 51.87401 10.83793 35446 ft 457 kts 167°
2026-04-30 18:30 51.74888 10.87464 35438 ft 457 kts 166°
2026-04-30 18:31 51.65708 10.91028 35430 ft 450 kts 152°
2026-04-30 18:32 51.57291 10.97651 35431 ft 449 kts 150°
2026-04-30 18:33 51.48857 11.04265 35429 ft 449 kts 149°
2026-04-30 18:33 51.40450 11.10844 35445 ft 450 kts 149°
2026-04-30 18:34 51.31990 11.17454 35421 ft 452 kts 149°
2026-04-30 18:35 51.26332 11.21860 35434 ft 452 kts 149°
2026-04-30 18:35 51.20660 11.26255 35429 ft 452 kts 149°
2026-04-30 18:36 51.12192 11.32809 35437 ft 453 kts 149°
2026-04-30 18:37 51.03677 11.39367 35428 ft 453 kts 149°
2026-04-30 18:37 50.98001 11.43722 35452 ft 453 kts 149°
2026-04-30 18:38 50.92315 11.48080 35440 ft 454 kts 149°
2026-04-30 18:38 50.86625 11.52418 35432 ft 454 kts 149°
2026-04-30 18:39 50.80929 11.56751 35435 ft 454 kts 149°
2026-04-30 18:39 50.75223 11.61079 35446 ft 454 kts 149°
2026-04-30 18:40 50.69468 11.65439 35183 ft 461 kts 149°
2026-04-30 18:40 50.66575 11.67621 34987 ft 461 kts 149°
2026-04-30 18:40 50.63685 11.69796 34789 ft 459 kts 149°
2026-04-30 18:40 50.60806 11.71959 34623 ft 458 kts 148°
2026-04-30 18:41 50.57969 11.74091 34420 ft 456 kts 148°
2026-04-30 18:41 50.55116 11.76238 34202 ft 454 kts 148°
2026-04-30 18:41 50.52273 11.78379 33860 ft 453 kts 148°
2026-04-30 18:41 50.49409 11.80529 32928 ft 457 kts 148°
2026-04-30 18:42 50.46558 11.82657 32423 ft 451 kts 148°
2026-04-30 18:42 50.40878 11.86566 31866 ft 443 kts 156°
2026-04-30 18:42 50.37857 11.87680 31611 ft 446 kts 162°
2026-04-30 18:45 50.07667 11.96904 30437 ft 458 kts 162°
2026-04-30 18:45 50.04524 11.97862 30428 ft 461 kts 162°
2026-04-30 18:46 49.98202 11.99771 30439 ft 463 kts 162°
2026-04-30 18:46 49.91898 12.01663 30436 ft 463 kts 162°
2026-04-30 18:47 49.85571 12.03555 29926 ft 460 kts 162°
2026-04-30 18:47 49.82430 12.04492 29530 ft 457 kts 162°
2026-04-30 18:47 49.79316 12.05426 29144 ft 454 kts 162°
2026-04-30 18:47 49.76218 12.06356 28770 ft 452 kts 162°
2026-04-30 18:48 49.73078 12.06846 28388 ft 459 kts 176°
2026-04-30 18:48 49.69891 12.06368 28016 ft 460 kts 182°
2026-04-30 18:48 49.66721 12.05772 27648 ft 458 kts 182°
2026-04-30 18:48 49.63568 12.05152 27284 ft 455 kts 182°
2026-04-30 18:49 49.60426 12.04525 27018 ft 458 kts 182°
2026-04-30 18:49 49.57240 12.03896 26799 ft 463 kts 183°
2026-04-30 18:49 49.54039 12.03267 26555 ft 463 kts 183°
2026-04-30 18:49 49.50861 12.02645 26299 ft 456 kts 183°
2026-04-30 18:50 49.47784 12.02043 26050 ft 448 kts 183°
2026-04-30 18:50 49.44707 12.01449 25715 ft 444 kts 183°
2026-04-30 18:50 49.41650 12.00861 25343 ft 441 kts 183°
2026-04-30 18:50 49.38609 12.00276 24986 ft 438 kts 183°
2026-04-30 18:51 49.35587 11.99695 24628 ft 436 kts 183°
2026-04-30 18:51 49.32587 11.99115 24271 ft 433 kts 184°
2026-04-30 18:51 49.29610 11.98543 23846 ft 430 kts 184°
2026-04-30 18:51 49.26649 11.97975 23353 ft 426 kts 184°
2026-04-30 18:52 49.23715 11.97416 22864 ft 423 kts 183°
2026-04-30 18:52 49.20804 11.96864 22338 ft 419 kts 183°
2026-04-30 18:52 49.17915 11.96316 21867 ft 416 kts 183°
2026-04-30 18:52 49.15086 11.95777 21411 ft 413 kts 183°
2026-04-30 18:53 49.12243 11.95233 20936 ft 410 kts 183°
2026-04-30 18:53 49.09413 11.94695 20390 ft 409 kts 183°
2026-04-30 18:53 49.06587 11.94163 19859 ft 408 kts 183°
2026-04-30 18:53 49.03775 11.93635 19326 ft 405 kts 183°
2026-04-30 18:54 49.01029 11.93108 18865 ft 390 kts 183°
2026-04-30 18:54 48.98370 11.92589 18362 ft 383 kts 183°
2026-04-30 18:54 48.95742 11.92084 17819 ft 377 kts 183°
2026-04-30 18:54 48.93141 11.91588 17423 ft 374 kts 183°
2026-04-30 18:55 48.90569 11.91103 17047 ft 371 kts 183°
2026-04-30 18:55 48.85481 11.90149 16275 ft 366 kts 183°
2026-04-30 18:55 48.82974 11.89679 15888 ft 357 kts 183°
2026-04-30 18:56 48.78237 11.88779 15146 ft 330 kts 182°
2026-04-30 18:56 48.76736 11.88495 14904 ft 323 kts 182°
2026-04-30 18:56 48.74513 11.88078 14559 ft 322 kts 182°
2026-04-30 18:57 48.69377 11.87124 13891 ft 316 kts 182°
2026-04-30 18:57 48.67903 11.86851 13696 ft 314 kts 183°
2026-04-30 18:57 48.65765 11.86457 13356 ft 313 kts 183°
2026-04-30 18:58 48.61462 11.85657 12718 ft 309 kts 183°
2026-04-30 18:58 48.59353 11.85260 12432 ft 299 kts 183°
2026-04-30 18:58 48.57320 11.84874 12153 ft 291 kts 183°
2026-04-30 18:59 48.53331 11.84055 11599 ft 288 kts 193°
2026-04-30 19:00 48.49407 11.77478 10492 ft 296 kts 244°
2026-04-30 19:00 48.48512 11.74678 10100 ft 297 kts 244°
2026-04-30 19:00 48.46789 11.69182 9341 ft 279 kts 244°
2026-04-30 19:01 48.45222 11.64101 8707 ft 258 kts 244°
2026-04-30 19:01 48.44470 11.61647 8374 ft 259 kts 244°
2026-04-30 19:02 48.43562 11.56492 7573 ft 256 kts 264°
2026-04-30 19:02 48.43221 11.51278 6792 ft 248 kts 264°
2026-04-30 19:03 48.42906 11.45997 5978 ft 258 kts 264°
2026-04-30 19:03 48.41465 11.41425 5516 ft 239 kts 208°
2026-04-30 19:04 48.38423 11.40508 5108 ft 217 kts 172°
2026-04-30 19:04 48.36201 11.42617 4696 ft 187 kts 117°
2026-04-30 19:05 48.34962 11.45963 4280 ft 181 kts 114°
2026-04-30 19:05 48.34137 11.49426 4019 ft 174 kts 88°
2026-04-30 19:06 48.34385 11.52681 4029 ft 140 kts 84°
2026-04-30 19:06 48.34495 11.54055 4009 ft 131 kts 84°
2026-04-30 19:06 48.34719 11.56826 3955 ft 131 kts 84°
2026-04-30 19:07 48.34937 11.59540 3848 ft 133 kts 84°
2026-04-30 19:07 48.35052 11.60923 3722 ft 133 kts 84°
2026-04-30 19:08 48.35258 11.63640 3374 ft 128 kts 84°
2026-04-30 19:08 48.35474 11.66334 2989 ft 132 kts 85°
2026-04-30 19:08 48.35572 11.67698 2831 ft 129 kts 84°
2026-04-30 19:09 48.35785 11.70450 2361 ft 134 kts 83°
2026-04-30 19:09 48.35900 11.71819 2147 ft 131 kts 83°
2026-04-30 19:09 48.36006 11.73193 1992 ft 133 kts 84°
2026-04-30 19:10 48.36211 11.75915 1638 ft 130 kts 83°
2026-04-30 19:10 48.36398 11.78346 1482 ft 83 kts 83°
2026-04-30 19:11 48.36449 11.79021 1480 ft 48 kts 83°
2026-04-30 19:11 48.36361 11.79568 1479 ft 13 kts 114°
2026-04-30 19:11 48.36330 11.79676 1476 ft 9 kts 113°
2026-04-30 19:12 48.36309 11.79747 1483 ft 8 kts 117°
2026-04-30 19:12 48.36255 11.79821 1485 ft 13 kts 154°
2026-04-30 19:12 48.36158 11.79838 1485 ft 15 kts 195°
2026-04-30 19:13 48.36115 11.79585 1485 ft 10 kts 264°
2026-04-30 19:13 48.36053 11.79486 1474 ft 7 kts 174°
2026-04-30 19:13 48.36011 11.79493 1486 ft 6 kts 173°
2026-04-30 19:14 48.35942 11.79498 1485 ft 14 kts 188°
2026-04-30 19:14 48.35853 11.79454 1481 ft 13 kts 182°
2026-04-30 19:14 48.35770 11.79468 1477 ft 9 kts 173°
2026-04-30 19:14 48.35714 11.79470 1475 ft 7 kts 194°
2026-04-30 19:15 48.35672 11.79437 1476 ft 6 kts 205°
2026-04-30 19:15 48.35554 11.79401 1474 ft 8 kts 245°
2026-04-30 19:15 48.35550 11.79340 1477 ft 5 kts 263°
2026-04-30 19:16 48.35547 11.79301 1475 ft 0 kts 263°